カタログに戻る

YAOGAN 4

運用中軍事SSO
NORAD 33446·PAYLOAD·🇨🇳 China

打ち上げ Dec 1, 2008 から Jiuquan Satellite Launch Center

Loading…

次のパス (今後24時間)

TLE

最新Source: Space-Track

元期: Sep 14, 2026, 06:44 UTC

1 33446U 08061A   26257.28111749  .00000711  00000-0  93247-4 0  9998
2 33446  97.9324 190.1472 0015142 135.9871 224.2551 14.83341177958874

AllMySatでYAOGAN 4をリアルタイム追跡

Download on the App Store